SL-16 DEB, 39721

Orbit data source: Space-Track

SL-16 DEB, 39721 is space debris in LEO originally from a launch on Fri, 25 Dec 1992 UTC launched from the Tyuratam Missile And Space Complex (TTMTR). Debris objects in space refer to the collection of defunct objects orbiting the Earth. Examples of debris include non-operational satellites, rocket bodies, and fragments generated from explosions, collisions, or faulty payload assembly.

Loading next visibility...
Identifier
39721, 1992-093KM
Orbit
LEO
Country
Flag of CISCIS
Related business
Manufacturer
Unknown
Mission
Spacecraft
Bus & Motor
Unknown
Mass
Unknown
Launch date (UTC)
1992-12-25 (33 years ago)
Launch vehicle
Unknown
Launch site
Tyuratam Missile And Space Complex (TTMTR)
Object type
Payload
Rocket body
Debris
Shape & HBR
Unknown shape, 1.1 m
Radar Cross Section
Small (<0.1 m²)

Expand to show TLE details & history
Last TLE update: 5 days ago

TLE from 5 days ago
0 SL-16 DEB
1 39721U 92093KM  25299.07254278  .00000354  00000-0  27168-3 0  9996
2 39721  71.1926 333.3761 0125362 162.4925 198.0571 13.95954314586716
Epoch: 2025-10-26T01:44Z
TLE epoch observation values (Epoch: 2025-10-26T01:44:27.696Z)
Latitude
-0.00003°
Longitude
-87.4333°
Altitude
997.191 km
Speed
7.309 km/s
True Right ascension
22h 13m 30s
True Declination
0° 00' 00"
Sunlit
Object was in full shadow at epoch
Visualization orbit readout
Latitude
Unknown
Longitude
Unknown
Altitude
Unknown
Speed
Unknown
Apparent Right ascension
Unknown
Apparent Declination
Unknown
Sunlit
N/A
Visualization observer readout
Local Sidereal Time
08:02:55
Azimuth
Unknown
Elevation
Unknown
Doppler factor
Unknown
Orbital elements
Apogee altitude
997.075 km
Perigee altitude
814.45 km
Semi-major axis
7,283.9 km
Eccentricity
0.01254
Inclination
71.1926°
RAAN
333.3761°
Arg. of periapsis
162.4925°
True anomaly
197.61837°
Mean anomaly
198.0571°
Eccentric anomaly
197.83709°
Mean motion
3.49138 °/min
Orbital period
103.11 mins
BSTAR
0.00027168
Loading maneuver chart data...
Computing Atmospheric mass density...
Loading historical data...
Loading historical data...
Loading historical data...
Loading historical data...
Loading historical data...
Loading historical data...
Loading historical data...

Documentation

Showing up to 5 results
|